Home > Weather > Greven > Past weeks

Flag for Germany Weather for the Past 2 Weeks in Greven, North Rhine-Westphalia, Germany

Now
52 °F

Clear.


Feels Like: 51 °F
Forecast: 53 / 74 °F
Wind: 5 mph from North

Location: Muenster / Osnabrueck

Current Time: May 6, 2016 at 5:38:34 AM

Latest Report: May 6, 2016 at 5:20 AM


Visibility: 10 mi

Pressure: 30.07 "Hg

Humidity: 77%

Dew Point: 45 °F

Location of GrevenLocation

Historic Weather in Greven — Graph

°F

Greven Temperature Yesterday

Maximum temperature yesterday: 66 °F (at 4:50 PM)
Minimum temperature yesterday: 37 °F (at 5:50 AM)
Average temperature yesterday: 55 °F

High & Low Weather Summary for the Past Weeks

 TemperatureHumidityPressure
High66 °F (May 2, 2:50 PM)100% (Apr 22, 4:50 AM)30.42 "Hg (Apr 22, 4:50 AM)
Low32 °F (Apr 25, 2:20 AM)31% (Apr 21, 6:20 PM)29.42 "Hg (Apr 26, 8:20 AM)
Average46 °F71%30.02 "Hg
* Reported Apr 21 4:20 AM — May 6 4:20 AM, Greven, Weather by CustomWeather, © 2016

Note: Actual official high and low records may vary slightly from our data, if they occured in-between our weather recording intervals... More about our weather records

Advertising

Greven Weather History for the Previous 24 Hours

Scroll right to see more
 ConditionsComfort  
Time TempWeatherWind HumidityBarometerVisibility
4:20 AM
Fri, May 6
52 °FPassing clouds.5 mph77%30.09 "HgN/A
3:50 AM54 °FPassing clouds.5 mph72%30.09 "HgN/A
3:20 AM54 °FPassing clouds.3 mph67%30.09 "HgN/A
2:50 AM54 °FPassing clouds.5 mph67%30.09 "HgN/A
2:20 AM55 °FPassing clouds.5 mph63%30.09 "HgN/A
1:50 AM55 °FPassing clouds.5 mph63%30.12 "HgN/A
1:20 AM55 °FPassing clouds.5 mph63%30.12 "HgN/A
12:50 AM55 °FPassing clouds.5 mph63%30.12 "HgN/A
12:20 AM55 °FPassing clouds.3 mph59%30.12 "HgN/A
11:50 PM
Thu, May 5
55 °FPassing clouds.5 mph59%30.12 "HgN/A
11:20 PM57 °FPassing clouds.5 mph55%30.12 "HgN/A
10:50 PM57 °FPassing clouds.3 mph55%30.12 "HgN/A
10:20 PM57 °FPassing clouds.3 mph55%30.12 "HgN/A
9:50 PM59 °FPassing clouds.5 mph51%30.12 "HgN/A
9:20 PM61 °FPassing clouds.3 mph48%30.12 "HgN/A
8:50 PM63 °FPassing clouds.3 mph45%30.12 "HgN/A
8:20 PM64 °FPassing clouds.5 mph43%30.15 "HgN/A
7:50 PM64 °FPassing clouds.5 mph40%30.15 "HgN/A
7:20 PM66 °FPassing clouds.7 mph37%30.15 "HgN/A
6:50 PM66 °FPassing clouds.8 mph37%30.15 "HgN/A
6:20 PM66 °FPassing clouds.8 mph37%30.15 "HgN/A
5:50 PM66 °FPassing clouds.9 mph35%30.18 "HgN/A
5:20 PM66 °FSunny.7 mph37%30.18 "Hg10 mi
4:50 PM66 °FPassing clouds.8 mph37%30.21 "HgN/A
4:20 PM64 °FPassing clouds.10 mph40%30.21 "HgN/A
3:50 PM64 °FPassing clouds.12 mph40%30.21 "HgN/A
3:20 PM64 °FPassing clouds.10 mph34%30.24 "HgN/A
2:50 PM64 °FPassing clouds.8 mph40%30.24 "HgN/A
2:20 PM64 °FPassing clouds.8 mph43%30.24 "HgN/A
1:50 PM64 °FPassing clouds.7 mph40%30.27 "HgN/A
1:20 PM63 °FPassing clouds.10 mph39%30.27 "HgN/A
12:50 PM63 °FSunny.7 mph39%30.30 "Hg10 mi
12:20 PM61 °FPassing clouds.8 mph39%30.30 "HgN/A
11:50 AM61 °FPassing clouds.10 mph42%30.30 "HgN/A
11:20 AM59 °FPassing clouds.12 mph39%30.33 "HgN/A
10:50 AM57 °FPassing clouds.10 mph41%30.33 "HgN/A
10:20 AM57 °FPassing clouds.7 mph44%30.33 "HgN/A
9:50 AM55 °FPassing clouds.6 mph51%30.33 "HgN/A
9:20 AM54 °FPassing clouds.7 mph54%30.36 "HgN/A
8:50 AM52 °FPassing clouds.6 mph54%30.36 "HgN/A
8:20 AM50 °FPassing clouds.6 mph58%30.36 "HgN/A
7:50 AM48 °FPassing clouds.5 mph58%30.36 "HgN/A
7:20 AM46 °FPassing clouds.3 mph62%30.36 "HgN/A
6:50 AM45 °FPassing clouds.5 mph61%30.36 "HgN/A
6:20 AM41 °FFog.3 mph70%30.36 "HgN/A
5:50 AM37 °FClear.2 mph87%30.36 "Hg10 mi
5:20 AM41 °FClear.2 mph70%30.36 "Hg10 mi
Weather by CustomWeather, © 2016

See weather overviewHow to use our weather pages